Time,TemperatureF,DewpointF,PressureIn,WindDirection,WindDirectionDegrees,WindSpeedMPH,WindSpeedGustMPH,Humidity,HourlyPrecipIn,Conditions,Clouds,dailyrainin,SoftwareType,DateUTC
2013-05-04 00:00:00,61.3,56.0,29.79,ESE,118,2.0,5.0,82,0.00,,,0.00,weatherlink.com 1.10,2013-05-04 07:00:00,
2013-05-04 00:07:00,60.7,54.8,29.79,ESE,119,5.0,5.0,81,0.00,,---,0.00,VWS V14.00,2013-05-04 07:07:00,
2013-05-04 00:17:00,60.8,56.0,29.79,ESE,113,3.0,5.0,83,0.00,,,0.00,weatherlink.com 1.10,2013-05-04 07:17:00,
2013-05-04 00:30:00,61.2,55.7,29.79,SSE,160,3.0,8.0,82,0.00,,---,0.00,VWS V14.00,2013-05-04 07:30:00,
2013-05-04 00:35:00,61.4,56.0,29.79,SSE,163,4.0,8.0,82,0.00,,,0.00,weatherlink.com 1.10,2013-05-04 07:35:00,
2013-05-04 00:37:00,61.2,55.7,29.79,SSE,160,3.0,8.0,82,0.00,,---,0.00,VWS V14.00,2013-05-04 07:37:00,
2013-05-04 00:52:00,61.3,55.0,29.78,SE,143,5.0,8.0,81,0.00,,,0.00,weatherlink.com 1.10,2013-05-04 07:52:00,
2013-05-04 01:00:00,60.6,54.4,29.78,ESE,114,3.0,9.0,80,0.00,,---,0.00,VWS V14.00,2013-05-04 08:00:00,
2013-05-04 01:07:00,60.6,54.4,29.78,ESE,114,3.0,9.0,80,0.00,,---,0.00,VWS V14.00,2013-05-04 08:07:00,
2013-05-04 01:09:00,60.3,54.0,29.78,ESE,108,3.0,4.0,80,0.00,,,0.00,weatherlink.com 1.10,2013-05-04 08:09:00,
2013-05-04 01:27:00,57.7,52.0,29.78,ESE,119,4.0,7.0,80,0.00,,,0.00,weatherlink.com 1.10,2013-05-04 08:27:00,
2013-05-04 01:30:00,59.3,56.1,29.78,SE,140,2.0,8.0,89,0.00,,---,0.00,VWS V14.00,2013-05-04 08:30:00,
2013-05-04 01:37:00,59.3,56.1,29.78,SE,140,2.0,8.0,89,0.00,,---,0.00,VWS V14.00,2013-05-04 08:37:00,
2013-05-04 01:44:00,60.3,58.0,29.78,SSE,151,6.0,9.0,92,0.00,,,0.00,weatherlink.com 1.10,2013-05-04 08:44:00,
2013-05-04 02:00:00,60.3,58.3,29.76,South,190,1.0,9.0,93,0.00,,---,0.00,VWS V14.00,2013-05-04 09:00:00,
2013-05-04 02:01:00,60.3,58.0,29.77,SSE,159,6.0,9.0,93,0.00,,,0.00,weatherlink.com 1.10,2013-05-04 09:01:00,
2013-05-04 02:07:00,60.3,58.3,29.76,South,190,1.0,9.0,93,0.00,,---,0.00,VWS V14.00,2013-05-04 09:07:00,
2013-05-04 02:19:00,60.1,58.0,29.76,ESE,119,1.0,10.0,93,0.00,,,0.00,weatherlink.com 1.10,2013-05-04 09:19:00,
2013-05-04 02:30:00,59.9,58.2,29.76,SSE,162,7.0,12.0,94,0.00,,---,0.00,VWS V14.00,2013-05-04 09:30:00,
2013-05-04 02:36:00,60.0,58.0,29.76,ESE,108,8.0,12.0,94,0.00,,,0.00,weatherlink.com 1.10,2013-05-04 09:36:00,
2013-05-04 02:37:00,59.9,58.2,29.76,SSE,162,7.0,12.0,94,0.00,,---,0.00,VWS V14.00,2013-05-04 09:37:00,
2013-05-04 02:53:00,59.9,58.0,29.76,SSE,163,4.0,14.0,94,0.00,,,0.00,weatherlink.com 1.10,2013-05-04 09:53:00,
2013-05-04 03:00:00,59.7,57.7,29.76,SE,136,7.0,14.0,93,0.00,,---,0.00,VWS V14.00,2013-05-04 10:00:00,
2013-05-04 03:07:00,59.7,57.7,29.76,SE,136,7.0,14.0,93,0.00,,---,0.00,VWS V14.00,2013-05-04 10:07:00,
2013-05-04 03:11:00,59.6,58.0,29.76,SE,129,4.0,12.0,93,0.00,,,0.00,weatherlink.com 1.10,2013-05-04 10:11:00,
2013-05-04 03:30:00,59.6,57.9,29.76,SE,135,6.0,14.0,94,0.00,,---,0.00,VWS V14.00,2013-05-04 10:30:00,
2013-05-04 04:00:00,59.4,57.4,29.75,SE,135,7.0,16.0,93,0.00,,---,0.00,VWS V14.00,2013-05-04 11:00:00,
2013-05-04 04:30:00,59.0,56.7,29.75,SSE,158,6.0,14.0,92,0.00,,---,0.00,VWS V14.00,2013-05-04 11:30:00,
2013-05-04 05:00:00,58.7,56.4,29.76,SE,135,6.0,16.0,92,0.00,,---,0.00,VWS V14.00,2013-05-04 12:00:00,
2013-05-04 05:30:00,58.6,56.3,29.76,SE,135,6.0,15.0,92,0.00,,---,0.00,VWS V14.00,2013-05-04 12:30:00,
2013-05-04 06:00:00,58.4,55.8,29.77,SE,135,6.0,15.0,91,0.00,,---,0.00,VWS V14.00,2013-05-04 13:00:00,
2013-05-04 06:30:00,58.2,55.3,29.78,SE,135,7.0,17.0,90,0.00,,---,0.00,VWS V14.00,2013-05-04 13:30:00,
2013-05-04 07:00:00,58.0,54.5,29.79,SE,135,8.0,21.0,88,0.00,,---,0.00,VWS V14.00,2013-05-04 14:00:00,
2013-05-04 07:30:00,58.7,54.8,29.79,SE,135,6.0,16.0,87,0.00,,---,0.00,VWS V14.00,2013-05-04 14:30:00,
2013-05-04 08:00:00,59.3,54.5,29.80,SE,135,7.0,17.0,84,0.00,,---,0.00,VWS V14.00,2013-05-04 15:00:00,
2013-05-04 08:30:00,60.1,54.6,29.79,SE,135,9.0,20.0,82,0.00,,---,0.00,VWS V14.00,2013-05-04 15:30:00,
2013-05-04 09:00:00,61.4,54.8,29.80,SE,135,10.0,21.0,79,0.00,,---,0.00,VWS V14.00,2013-05-04 16:00:00,
2013-05-04 09:30:00,61.2,54.3,29.79,SSE,158,10.0,21.0,78,0.00,,---,0.00,VWS V14.00,2013-05-04 16:30:00,
2013-05-04 10:00:00,62.1,54.8,29.80,SSE,158,9.0,20.0,77,0.00,,---,0.00,VWS V14.00,2013-05-04 17:00:00,
2013-05-04 10:30:00,63.0,55.0,29.81,SSE,158,9.0,22.0,75,0.00,,---,0.00,VWS V14.00,2013-05-04 17:30:00,
2013-05-04 11:00:00,63.1,55.8,29.80,SSE,158,10.0,20.0,77,0.00,,---,0.00,VWS V14.00,2013-05-04 18:00:00,
2013-05-04 11:30:00,63.9,55.8,29.80,SSE,158,8.0,17.0,75,0.00,,---,0.00,VWS V14.00,2013-05-04 18:30:00,
2013-05-04 12:00:00,64.1,56.0,29.79,SSE,158,8.0,18.0,75,0.00,,---,0.00,VWS V14.00,2013-05-04 19:00:00,
2013-05-04 12:30:00,64.8,56.3,29.78,South,180,7.0,18.0,74,0.00,,---,0.00,VWS V14.00,2013-05-04 19:30:00,
2013-05-04 13:00:00,64.9,56.4,29.78,SSE,158,8.0,19.0,74,0.00,,---,0.00,VWS V14.00,2013-05-04 20:00:00,
2013-05-04 13:30:00,64.5,56.4,29.78,SSE,158,7.0,18.0,75,0.00,,---,0.00,VWS V14.00,2013-05-04 20:30:00,
2013-05-04 14:00:00,64.5,56.8,29.78,SSE,158,7.0,18.0,76,0.00,,---,0.00,VWS V14.00,2013-05-04 21:00:00,
2013-05-04 14:30:00,64.8,56.3,29.77,SE,135,9.0,17.0,74,0.00,,---,0.00,VWS V14.00,2013-05-04 21:30:00,
2013-05-04 15:00:00,64.1,55.7,29.77,SE,135,9.0,22.0,74,0.00,,---,0.00,VWS V14.00,2013-05-04 22:00:00,
2013-05-04 15:30:00,63.0,55.0,29.77,SE,135,9.0,21.0,75,0.00,,---,0.00,VWS V14.00,2013-05-04 22:30:00,
2013-05-04 16:00:00,62.7,55.8,29.77,SE,135,9.0,18.0,78,0.00,,---,0.00,VWS V14.00,2013-05-04 23:00:00,
2013-05-04 16:30:00,62.5,55.9,29.78,SE,135,8.0,18.0,79,0.00,,---,0.00,VWS V14.00,2013-05-04 23:30:00,
2013-05-04 17:00:00,62.1,55.5,29.78,SSE,158,7.0,16.0,79,0.00,,---,0.00,VWS V14.00,2013-05-05 00:00:00,
2013-05-04 17:30:00,61.5,55.6,29.78,SSE,158,6.0,14.0,81,0.00,,---,0.00,VWS V14.00,2013-05-05 00:30:00,
2013-05-04 18:00:00,60.9,55.7,29.78,SSE,158,6.0,13.0,83,0.00,,---,0.00,VWS V14.00,2013-05-05 01:00:00,
2013-05-04 18:30:00,60.4,55.2,29.78,SSE,158,6.0,15.0,83,0.00,,---,0.00,VWS V14.00,2013-05-05 01:30:00,
2013-05-04 19:00:00,59.9,54.7,29.79,SSE,158,7.0,20.0,83,0.00,,---,0.00,VWS V14.00,2013-05-05 02:00:00,
2013-05-04 19:30:00,59.0,54.2,29.80,SSE,158,7.0,15.0,84,0.00,,---,0.00,VWS V14.00,2013-05-05 02:30:00,
2013-05-04 20:00:00,58.6,53.8,29.81,SSE,158,6.0,14.0,84,0.00,,---,0.00,VWS V14.00,2013-05-05 03:00:00,
2013-05-04 20:30:00,58.0,53.2,29.81,SSE,158,6.0,16.0,84,0.00,,---,0.00,VWS V14.00,2013-05-05 03:30:00,
2013-05-04 21:00:00,57.9,52.8,29.83,SSE,158,7.0,16.0,83,0.00,,---,0.00,VWS V14.00,2013-05-05 04:00:00,
2013-05-04 21:30:00,57.8,52.7,29.83,SSE,158,5.0,13.0,83,0.00,,---,0.00,VWS V14.00,2013-05-05 04:30:00,
2013-05-04 22:00:00,57.6,52.2,29.84,SE,135,5.0,11.0,82,0.00,,---,0.00,VWS V14.00,2013-05-05 05:00:00,
2013-05-04 22:30:00,57.7,52.2,29.85,SSE,158,4.0,10.0,82,0.00,,---,0.00,VWS V14.00,2013-05-05 05:30:00,
2013-05-04 23:00:00,57.4,52.0,29.84,SE,135,4.0,10.0,82,0.00,,---,0.00,VWS V14.00,2013-05-05 06:00:00,
2013-05-04 23:30:00,57.4,52.3,29.84,SE,135,4.0,10.0,83,0.00,,---,0.00,VWS V14.00,2013-05-05 06:30:00,